Time,TemperatureF,DewpointF,PressureIn,WindDirection,WindDirectionDegrees,WindSpeedMPH,WindSpeedGustMPH,Humidity,HourlyPrecipIn,Conditions,Clouds,dailyrainin,SoftwareType,DateUTC
2013-02-12 00:05:00,32.4,32.0,29.52,North,1,0.0,0.0,97,0.00,,,0.00,vanprod,2013-02-12 05:05:00,
2013-02-12 00:15:00,32.5,32.0,29.52,North,0,0.0,0.0,97,0.00,,,0.00,vanprod,2013-02-12 05:15:00,
2013-02-12 00:25:00,32.5,32.0,29.52,North,0,0.0,0.0,97,0.00,,,0.00,vanprod,2013-02-12 05:25:00,
2013-02-12 00:35:00,32.8,32.0,29.52,North,0,1.0,0.0,97,0.00,,,0.00,vanprod,2013-02-12 05:35:00,
2013-02-12 00:45:00,32.9,32.0,29.50,North,1,0.0,1.0,97,0.00,,,0.00,vanprod,2013-02-12 05:45:00,
2013-02-12 00:55:00,33.1,32.0,29.50,North,0,0.0,0.0,97,0.00,,,0.00,vanprod,2013-02-12 05:55:00,
2013-02-12 01:05:00,33.1,32.0,29.50,North,0,0.0,1.0,97,0.00,,,0.00,vanprod,2013-02-12 06:05:00,
2013-02-12 01:15:00,33.1,32.0,29.48,ESE,121,1.0,1.0,97,0.00,,,0.00,vanprod,2013-02-12 06:15:00,
2013-02-12 01:25:00,32.9,32.0,29.48,ESE,121,1.0,0.0,97,0.00,,,0.00,vanprod,2013-02-12 06:25:00,
2013-02-12 01:35:00,32.8,32.0,29.49,ESE,121,0.0,0.0,97,0.00,,,0.00,vanprod,2013-02-12 06:35:00,
2013-02-12 01:45:00,32.7,32.0,29.50,ESE,121,0.0,0.0,97,0.00,,,0.00,vanprod,2013-02-12 06:45:00,
2013-02-12 01:55:00,32.7,32.0,29.50,ESE,121,0.0,0.0,97,0.00,,,0.00,vanprod,2013-02-12 06:55:00,
2013-02-12 02:05:00,32.7,32.0,29.50,WSW,256,1.0,1.0,97,0.00,,,0.00,vanprod,2013-02-12 07:05:00,
2013-02-12 02:15:00,32.8,32.0,29.51,SW,215,2.0,2.0,97,0.00,,,0.01,vanprod,2013-02-12 07:15:00,
2013-02-12 02:25:00,33.1,32.0,29.51,WSW,237,2.0,2.0,97,0.00,,,0.01,vanprod,2013-02-12 07:25:00,
2013-02-12 02:35:00,33.1,32.0,29.50,WSW,239,1.0,2.0,97,0.00,,,0.01,vanprod,2013-02-12 07:35:00,
2013-02-12 02:45:00,33.1,32.0,29.50,SW,216,2.0,2.0,97,0.00,,,0.01,vanprod,2013-02-12 07:45:00,
2013-02-12 02:55:00,32.9,32.0,29.50,South,188,1.0,1.0,97,0.00,,,0.01,vanprod,2013-02-12 07:55:00,
2013-02-12 03:05:00,32.9,32.0,29.50,SSE,152,2.0,2.0,97,0.00,,,0.01,vanprod,2013-02-12 08:05:00,
2013-02-12 03:15:00,33.4,33.0,29.50,WSW,237,2.0,2.0,98,0.00,,,0.01,vanprod,2013-02-12 08:15:00,
2013-02-12 03:25:00,33.4,33.0,29.50,WSW,246,2.0,2.0,97,0.00,,,0.01,vanprod,2013-02-12 08:25:00,
2013-02-12 03:35:00,33.4,33.0,29.50,SW,220,2.0,2.0,97,0.00,,,0.01,vanprod,2013-02-12 08:35:00,
2013-02-12 03:45:00,33.5,33.0,29.51,SW,232,3.0,3.0,97,0.00,,,0.01,vanprod,2013-02-12 08:45:00,
2013-02-12 03:55:00,33.5,33.0,29.51,WSW,246,3.0,3.0,97,0.00,,,0.01,vanprod,2013-02-12 08:55:00,
2013-02-12 04:05:00,33.5,33.0,29.51,West,271,3.0,4.0,97,0.00,,,0.01,vanprod,2013-02-12 09:05:00,
2013-02-12 04:15:00,33.5,32.0,29.51,North,359,2.0,2.0,96,0.00,,,0.01,vanprod,2013-02-12 09:15:00,
2013-02-12 04:25:00,33.5,32.0,29.51,SSW,210,1.0,1.0,96,0.00,,,0.01,vanprod,2013-02-12 09:25:00,
2013-02-12 04:35:00,33.2,32.0,29.52,WNW,282,1.0,0.0,96,0.00,,,0.01,vanprod,2013-02-12 09:35:00,
2013-02-12 04:45:00,33.1,32.0,29.52,SW,229,1.0,1.0,96,0.00,,,0.02,vanprod,2013-02-12 09:45:00,
2013-02-12 04:55:00,32.9,32.0,29.52,WSW,240,1.0,3.0,96,0.00,,,0.02,vanprod,2013-02-12 09:55:00,
2013-02-12 05:05:00,32.8,32.0,29.52,WSW,241,2.0,5.0,96,0.00,,,0.02,vanprod,2013-02-12 10:05:00,
2013-02-12 05:15:00,32.8,32.0,29.53,WSW,243,1.0,0.0,96,0.00,,,0.02,vanprod,2013-02-12 10:15:00,
2013-02-12 05:25:00,32.8,32.0,29.53,WSW,257,1.0,2.0,96,0.00,,,0.02,vanprod,2013-02-12 10:25:00,
2013-02-12 05:35:00,32.7,31.0,29.53,WSW,250,2.0,2.0,95,0.00,,,0.02,vanprod,2013-02-12 10:35:00,
2013-02-12 05:45:00,32.4,31.0,29.53,WSW,250,2.0,2.0,95,0.00,,,0.02,vanprod,2013-02-12 10:45:00,
2013-02-12 05:55:00,32.2,31.0,29.53,WSW,257,1.0,1.0,95,0.00,,,0.02,vanprod,2013-02-12 10:55:00,
2013-02-12 06:05:00,31.9,31.0,29.53,SW,232,1.0,2.0,95,0.00,,,0.02,vanprod,2013-02-12 11:05:00,
2013-02-12 06:15:00,31.8,30.0,29.53,SW,232,2.0,2.0,95,0.00,,,0.02,vanprod,2013-02-12 11:15:00,
2013-02-12 06:25:00,31.5,30.0,29.53,WSW,241,1.0,1.0,95,0.00,,,0.02,vanprod,2013-02-12 11:25:00,
2013-02-12 06:35:00,31.5,30.0,29.54,West,264,1.0,1.0,95,0.00,,,0.02,vanprod,2013-02-12 11:35:00,
2013-02-12 06:45:00,31.2,30.0,29.54,West,265,1.0,0.0,95,0.00,,,0.02,vanprod,2013-02-12 11:45:00,
2013-02-12 06:55:00,30.9,30.0,29.54,SSW,205,1.0,1.0,95,0.00,,,0.02,vanprod,2013-02-12 11:55:00,
2013-02-12 07:05:00,30.6,29.0,29.55,SW,227,1.0,1.0,95,0.00,,,0.02,vanprod,2013-02-12 12:05:00,
2013-02-12 07:15:00,30.4,29.0,29.55,WSW,239,1.0,2.0,95,0.00,,,0.02,vanprod,2013-02-12 12:15:00,
2013-02-12 07:25:00,30.4,29.0,29.55,SW,220,2.0,2.0,95,0.00,,,0.02,vanprod,2013-02-12 12:25:00,
2013-02-12 07:35:00,30.4,29.0,29.55,SW,220,0.0,0.0,95,0.00,,,0.02,vanprod,2013-02-12 12:35:00,
2013-02-12 07:45:00,30.4,29.0,29.55,SW,219,0.0,1.0,95,0.00,,,0.02,vanprod,2013-02-12 12:45:00,
2013-02-12 07:55:00,30.4,29.0,29.55,SW,217,0.0,0.0,95,0.00,,,0.02,vanprod,2013-02-12 12:55:00,
2013-02-12 08:05:00,30.7,30.0,29.56,SSW,213,0.0,0.0,96,0.00,,,0.02,vanprod,2013-02-12 13:05:00,
2013-02-12 08:15:00,30.9,30.0,29.56,WSW,251,1.0,1.0,96,0.00,,,0.02,vanprod,2013-02-12 13:15:00,
2013-02-12 08:25:00,31.3,30.0,29.56,SSW,213,2.0,3.0,96,0.00,,,0.02,vanprod,2013-02-12 13:25:00,
2013-02-12 08:35:00,31.6,30.0,29.56,SW,230,2.0,2.0,95,0.00,,,0.02,vanprod,2013-02-12 13:35:00,
2013-02-12 08:45:00,32.8,31.0,29.56,South,174,2.0,3.0,94,0.00,,,0.02,vanprod,2013-02-12 13:45:00,
2013-02-12 08:55:00,33.4,31.0,29.56,SW,227,2.0,2.0,92,0.00,,,0.02,vanprod,2013-02-12 13:55:00,
2013-02-12 09:05:00,34.4,31.0,29.56,WSW,253,3.0,5.0,88,0.00,,,0.02,vanprod,2013-02-12 14:05:00,
2013-02-12 09:15:00,35.2,31.0,29.55,SW,226,3.0,4.0,86,0.00,,,0.02,vanprod,2013-02-12 14:15:00,
2013-02-12 09:25:00,35.6,31.0,29.55,SSW,212,3.0,3.0,84,0.00,,,0.02,vanprod,2013-02-12 14:25:00,
2013-02-12 09:35:00,36.0,31.0,29.55,WSW,257,3.0,3.0,82,0.00,,,0.02,vanprod,2013-02-12 14:35:00,
2013-02-12 09:45:00,36.6,31.0,29.56,WSW,254,3.0,3.0,81,0.00,,,0.03,vanprod,2013-02-12 14:45:00,
2013-02-12 09:55:00,37.0,31.0,29.56,SE,138,2.0,2.0,80,0.05,,,0.04,vanprod,2013-02-12 14:55:00,
2013-02-12 10:05:00,37.8,32.0,29.56,WSW,246,2.0,3.0,79,0.11,,,0.06,vanprod,2013-02-12 15:05:00,
2013-02-12 10:15:00,38.5,31.0,29.56,SW,229,2.0,4.0,75,0.05,,,0.06,vanprod,2013-02-12 15:15:00,
2013-02-12 10:25:00,39.1,32.0,29.56,WSW,240,2.0,0.0,74,0.00,,,0.06,vanprod,2013-02-12 15:25:00,
2013-02-12 10:35:00,39.2,31.0,29.56,SSW,202,3.0,4.0,73,0.00,,,0.07,vanprod,2013-02-12 15:35:00,
2013-02-12 10:45:00,38.8,31.0,29.56,WSW,253,3.0,5.0,74,0.00,,,0.07,vanprod,2013-02-12 15:45:00,
2013-02-12 10:55:00,39.3,31.0,29.56,North,357,2.0,0.0,72,0.00,,,0.07,vanprod,2013-02-12 15:55:00,
2013-02-12 11:05:00,39.6,30.0,29.57,WSW,253,3.0,6.0,69,0.00,,,0.08,vanprod,2013-02-12 16:05:00,
2013-02-12 11:15:00,40.1,30.0,29.56,South,179,3.0,3.0,68,0.00,,,0.08,vanprod,2013-02-12 16:15:00,
2013-02-12 11:25:00,40.3,31.0,29.56,West,280,3.0,3.0,68,0.00,,,0.09,vanprod,2013-02-12 16:25:00,
2013-02-12 11:35:00,40.5,30.0,29.57,SW,217,4.0,4.0,66,0.00,,,0.09,vanprod,2013-02-12 16:35:00,
2013-02-12 11:45:00,40.6,29.0,29.57,NW,306,4.0,5.0,63,0.00,,,0.09,vanprod,2013-02-12 16:45:00,
2013-02-12 11:55:00,40.9,29.0,29.57,West,261,3.0,4.0,63,0.00,,,0.10,vanprod,2013-02-12 16:55:00,
2013-02-12 12:05:00,41.1,29.0,29.57,West,277,4.0,4.0,61,0.00,,,0.10,vanprod,2013-02-12 17:05:00,
2013-02-12 12:15:00,41.2,29.0,29.57,WSW,246,3.0,3.0,62,0.00,,,0.11,vanprod,2013-02-12 17:15:00,
2013-02-12 12:25:00,41.3,29.0,29.57,West,272,3.0,3.0,62,0.13,,,0.13,vanprod,2013-02-12 17:25:00,
2013-02-12 12:35:00,41.5,29.0,29.57,SW,229,2.0,2.0,60,0.13,,,0.15,vanprod,2013-02-12 17:35:00,
2013-02-12 12:45:00,41.8,29.0,29.57,NW,305,2.0,0.0,60,0.05,,,0.15,vanprod,2013-02-12 17:45:00,
2013-02-12 12:55:00,42.1,29.0,29.57,SW,234,3.0,3.0,59,0.22,,,0.18,vanprod,2013-02-12 17:55:00,
2013-02-12 13:05:00,42.2,29.0,29.58,WNW,298,3.0,3.0,59,0.16,,,0.22,vanprod,2013-02-12 18:05:00,
2013-02-12 13:15:00,41.9,29.0,29.58,NW,306,3.0,7.0,61,0.12,,,0.24,vanprod,2013-02-12 18:15:00,
2013-02-12 13:25:00,41.6,29.0,29.58,WSW,250,4.0,0.0,60,0.09,,,0.25,vanprod,2013-02-12 18:25:00,
2013-02-12 13:35:00,41.8,29.0,29.58,SW,236,2.0,2.0,61,0.09,,,0.27,vanprod,2013-02-12 18:35:00,
2013-02-12 13:45:00,41.5,29.0,29.59,SSW,205,3.0,3.0,61,0.10,,,0.28,vanprod,2013-02-12 18:45:00,
2013-02-12 13:55:00,41.8,29.0,29.59,WNW,285,3.0,4.0,61,0.04,,,0.28,vanprod,2013-02-12 18:55:00,
2013-02-12 14:05:00,41.6,28.0,29.59,WSW,256,4.0,4.0,59,0.04,,,0.29,vanprod,2013-02-12 19:05:00,
2013-02-12 14:15:00,41.5,29.0,29.59,WSW,253,4.0,4.0,61,0.04,,,0.30,vanprod,2013-02-12 19:15:00,
2013-02-12 14:25:00,41.8,29.0,29.59,WNW,291,4.0,4.0,60,0.08,,,0.31,vanprod,2013-02-12 19:25:00,
2013-02-12 14:35:00,41.5,29.0,29.60,WNW,299,4.0,4.0,61,0.08,,,0.33,vanprod,2013-02-12 19:35:00,
2013-02-12 14:45:00,41.2,29.0,29.61,North,0,4.0,4.0,62,0.08,,,0.34,vanprod,2013-02-12 19:45:00,
2013-02-12 14:55:00,41.1,29.0,29.61,WNW,295,3.0,3.0,61,0.05,,,0.35,vanprod,2013-02-12 19:55:00,
2013-02-12 15:05:00,40.8,29.0,29.61,SW,232,2.0,2.0,63,0.05,,,0.35,vanprod,2013-02-12 20:05:00,
2013-02-12 15:15:00,40.5,29.0,29.62,NW,305,2.0,5.0,63,0.05,,,0.36,vanprod,2013-02-12 20:15:00,
2013-02-12 15:25:00,40.6,29.0,29.62,WNW,284,3.0,3.0,62,0.04,,,0.37,vanprod,2013-02-12 20:25:00,
2013-02-12 15:35:00,40.3,29.0,29.62,WSW,257,2.0,0.0,63,0.04,,,0.37,vanprod,2013-02-12 20:35:00,
2013-02-12 15:45:00,40.1,29.0,29.62,WSW,247,2.0,2.0,65,0.04,,,0.38,vanprod,2013-02-12 20:45:00,
2013-02-12 15:55:00,39.8,30.0,29.62,WSW,253,2.0,2.0,67,0.00,,,0.38,vanprod,2013-02-12 20:55:00,
2013-02-12 16:05:00,39.3,30.0,29.62,WSW,237,2.0,2.0,69,0.00,,,0.39,vanprod,2013-02-12 21:05:00,
2013-02-12 16:15:00,39.1,30.0,29.63,SW,217,1.0,1.0,69,0.00,,,0.39,vanprod,2013-02-12 21:15:00,
2013-02-12 16:25:00,38.5,29.0,29.63,WSW,239,1.0,1.0,69,0.00,,,0.40,vanprod,2013-02-12 21:25:00,
2013-02-12 16:35:00,38.0,30.0,29.62,West,260,1.0,3.0,71,0.00,,,0.40,vanprod,2013-02-12 21:35:00,
2013-02-12 16:45:00,38.0,30.0,29.63,SW,234,1.0,2.0,71,0.00,,,0.40,vanprod,2013-02-12 21:45:00,
2013-02-12 16:55:00,38.2,30.0,29.63,SW,227,2.0,2.0,71,0.00,,,0.40,vanprod,2013-02-12 21:55:00,
2013-02-12 17:05:00,37.9,30.0,29.63,SSW,213,2.0,2.0,72,0.00,,,0.41,vanprod,2013-02-12 22:05:00,
2013-02-12 17:15:00,37.6,30.0,29.64,SSW,213,0.0,0.0,73,0.00,,,0.41,vanprod,2013-02-12 22:15:00,
2013-02-12 17:25:00,37.0,30.0,29.64,West,263,1.0,1.0,75,0.00,,,0.41,vanprod,2013-02-12 22:25:00,
2013-02-12 17:35:00,36.6,29.0,29.64,West,263,1.0,1.0,75,0.00,,,0.41,vanprod,2013-02-12 22:35:00,
2013-02-12 17:45:00,36.3,30.0,29.65,West,264,1.0,1.0,77,0.00,,,0.41,vanprod,2013-02-12 22:45:00,
2013-02-12 17:55:00,36.0,30.0,29.65,WSW,244,1.0,2.0,77,0.00,,,0.41,vanprod,2013-02-12 22:55:00,
2013-02-12 18:05:00,35.8,29.0,29.65,SSW,210,1.0,0.0,77,0.00,,,0.41,vanprod,2013-02-12 23:05:00,
2013-02-12 18:15:00,35.5,29.0,29.65,SSW,210,0.0,0.0,77,0.00,,,0.41,vanprod,2013-02-12 23:15:00,
2013-02-12 18:25:00,35.0,29.0,29.65,SSW,210,0.0,0.0,79,0.00,,,0.41,vanprod,2013-02-12 23:25:00,
2013-02-12 18:35:00,34.6,29.0,29.65,SSW,210,0.0,0.0,80,0.00,,,0.41,vanprod,2013-02-12 23:35:00,
2013-02-12 18:45:00,34.4,29.0,29.65,SSW,212,0.0,0.0,81,0.00,,,0.41,vanprod,2013-02-12 23:45:00,
2013-02-12 18:55:00,34.1,29.0,29.64,SSW,210,0.0,0.0,82,0.00,,,0.41,vanprod,2013-02-12 23:55:00,
2013-02-12 19:05:00,33.8,29.0,29.65,SSW,210,0.0,0.0,83,0.00,,,0.41,vanprod,2013-02-13 00:05:00,
2013-02-12 19:15:00,33.5,29.0,29.67,SSW,212,0.0,1.0,84,0.00,,,0.41,vanprod,2013-02-13 00:15:00,
2013-02-12 19:25:00,33.4,29.0,29.67,SSW,210,1.0,0.0,85,0.00,,,0.41,vanprod,2013-02-13 00:25:00,
2013-02-12 19:35:00,33.2,29.0,29.67,SSW,210,0.0,0.0,85,0.00,,,0.41,vanprod,2013-02-13 00:35:00,
2013-02-12 19:45:00,33.2,29.0,29.68,SSW,210,0.0,0.0,84,0.00,,,0.41,vanprod,2013-02-13 00:45:00,
2013-02-12 19:55:00,33.2,29.0,29.68,SSW,210,1.0,1.0,85,0.00,,,0.41,vanprod,2013-02-13 00:55:00,
2013-02-12 20:05:00,33.4,29.0,29.69,WSW,248,2.0,2.0,85,0.00,,,0.41,vanprod,2013-02-13 01:05:00,
2013-02-12 20:15:00,33.7,29.0,29.71,SSW,212,2.0,2.0,84,0.00,,,0.41,vanprod,2013-02-13 01:15:00,
2013-02-12 20:25:00,34.0,29.0,29.71,SW,224,1.0,0.0,83,0.00,,,0.41,vanprod,2013-02-13 01:25:00,
2013-02-12 20:35:00,34.3,29.0,29.73,SSW,206,1.0,0.0,82,0.00,,,0.41,vanprod,2013-02-13 01:35:00,
2013-02-12 20:45:00,34.7,29.0,29.74,South,182,1.0,0.0,81,0.00,,,0.41,vanprod,2013-02-13 01:45:00,
2013-02-12 20:55:00,34.9,30.0,29.74,SW,233,0.0,2.0,81,0.00,,,0.41,vanprod,2013-02-13 01:55:00,
2013-02-12 21:05:00,35.0,29.0,29.75,WSW,246,2.0,2.0,79,0.00,,,0.41,vanprod,2013-02-13 02:05:00,
2013-02-12 21:15:00,35.5,29.0,29.75,WSW,250,1.0,1.0,78,0.00,,,0.42,vanprod,2013-02-13 02:15:00,
2013-02-12 21:25:00,35.6,29.0,29.75,WSW,243,2.0,2.0,76,0.00,,,0.42,vanprod,2013-02-13 02:25:00,
2013-02-12 21:35:00,35.5,29.0,29.75,SW,229,2.0,2.0,76,0.00,,,0.42,vanprod,2013-02-13 02:35:00,
2013-02-12 21:45:00,35.5,28.0,29.73,WSW,240,2.0,2.0,75,0.00,,,0.42,vanprod,2013-02-13 02:45:00,
2013-02-12 21:55:00,35.3,29.0,29.73,SSW,199,2.0,3.0,76,0.00,,,0.42,vanprod,2013-02-13 02:55:00,
2013-02-12 22:05:00,35.2,28.0,29.73,West,268,1.0,2.0,75,0.00,,,0.42,vanprod,2013-02-13 03:05:00,
2013-02-12 22:15:00,34.9,28.0,29.71,WNW,289,1.0,2.0,75,0.00,,,0.42,vanprod,2013-02-13 03:15:00,
2013-02-12 22:25:00,34.6,28.0,29.71,WNW,292,0.0,0.0,75,0.00,,,0.42,vanprod,2013-02-13 03:25:00,
2013-02-12 22:35:00,34.1,28.0,29.72,WNW,291,0.0,0.0,77,0.00,,,0.42,vanprod,2013-02-13 03:35:00,
2013-02-12 22:45:00,33.7,28.0,29.72,WNW,289,0.0,1.0,80,0.00,,,0.42,vanprod,2013-02-13 03:45:00,
2013-02-12 22:55:00,33.4,28.0,29.72,WNW,289,1.0,1.0,81,0.00,,,0.42,vanprod,2013-02-13 03:55:00,
2013-02-12 23:05:00,33.2,28.0,29.72,WNW,289,0.0,0.0,81,0.00,,,0.42,vanprod,2013-02-13 04:05:00,
2013-02-12 23:15:00,33.1,28.0,29.71,WNW,289,0.0,0.0,81,0.00,,,0.42,vanprod,2013-02-13 04:15:00,
2013-02-12 23:25:00,33.1,28.0,29.71,WNW,289,1.0,0.0,81,0.00,,,0.42,vanprod,2013-02-13 04:25:00,
2013-02-12 23:35:00,33.1,28.0,29.71,WSW,247,1.0,2.0,82,0.00,,,0.42,vanprod,2013-02-13 04:35:00,
2013-02-12 23:45:00,33.2,27.0,29.71,NW,306,2.0,0.0,79,0.00,,,0.42,vanprod,2013-02-13 04:45:00,
2013-02-12 23:55:00,33.5,27.0,29.71,WNW,295,2.0,2.0,78,0.00,,,0.42,vanprod,2013-02-13 04:55:00,